"Time","Value","Approval","myLocation"
"2023-05-07 00:00",23.1712,"Approved","OW496"
"2023-05-07 01:00",23.1755,"Approved","OW496"
"2023-05-07 02:00",23.1789,"Approved","OW496"
"2023-05-07 03:00",23.1812,"Approved","OW496"
"2023-05-07 04:00",23.1796,"Approved","OW496"
"2023-05-07 05:00",23.1775,"Approved","OW496"
"2023-05-07 06:00",23.1752,"Approved","OW496"
"2023-05-07 07:00",23.175,"Approved","OW496"
"2023-05-07 08:00",23.1735,"Approved","OW496"
"2023-05-07 09:00",23.1723,"Approved","OW496"
"2023-05-07 10:00",23.17,"Approved","OW496"
"2023-05-07 11:00",23.1672,"Approved","OW496"
"2023-05-07 12:00",23.1662,"Approved","OW496"
"2023-05-07 13:00",23.1651,"Approved","OW496"
"2023-05-07 14:00",23.1652,"Approved","OW496"
"2023-05-07 15:00",23.1633,"Approved","OW496"
"2023-05-07 16:00",23.1627,"Approved","OW496"
"2023-05-07 17:00",23.1611,"Approved","OW496"
"2023-05-07 18:00",23.16,"Approved","OW496"
"2023-05-07 19:00",23.16,"Approved","OW496"
"2023-05-07 20:00",23.1579,"Approved","OW496"
"2023-05-07 21:00",23.1591,"Approved","OW496"
"2023-05-07 22:00",23.158,"Approved","OW496"
"2023-05-07 23:00",23.1622,"Approved","OW496"
"2023-05-08 00:00",23.1693,"Approved","OW496"
"2023-05-08 01:00",23.176,"Approved","OW496"
"2023-05-08 02:00",23.1815,"Approved","OW496"
"2023-05-08 03:00",23.1833,"Approved","OW496"
"2023-05-08 04:00",23.185,"Approved","OW496"
"2023-05-08 05:00",23.185,"Approved","OW496"
"2023-05-08 06:00",23.1865,"Approved","OW496"
"2023-05-08 07:00",23.1841,"Approved","OW496"
"2023-05-08 08:00",23.1836,"Approved","OW496"
"2023-05-08 09:00",23.185,"Approved","OW496"
"2023-05-08 10:00",23.184,"Approved","OW496"
"2023-05-08 11:00",23.1843,"Approved","OW496"
"2023-05-08 12:00",23.1856,"Approved","OW496"
"2023-05-08 13:00",23.1865,"Approved","OW496"
"2023-05-08 14:00",23.187,"Approved","OW496"
"2023-05-08 15:00",23.1862,"Approved","OW496"
"2023-05-08 16:00",23.1839,"Approved","OW496"
"2023-05-08 17:00",23.1839,"Approved","OW496"
"2023-05-08 18:00",23.1832,"Approved","OW496"
"2023-05-08 19:00",23.1847,"Approved","OW496"
"2023-05-08 20:00",23.1871,"Approved","OW496"
"2023-05-08 21:00",23.1917,"Approved","OW496"
"2023-05-08 22:00",23.1909,"Approved","OW496"
"2023-05-08 23:00",23.1924,"Approved","OW496"
"2023-05-09 00:00",23.198,"Approved","OW496"
"2023-05-09 01:00",23.2042,"Approved","OW496"
"2023-05-09 02:00",23.2092,"Approved","OW496"
"2023-05-09 03:00",23.211,"Approved","OW496"
"2023-05-09 04:00",23.2112,"Approved","OW496"
"2023-05-09 05:00",23.2097,"Approved","OW496"
"2023-05-09 06:00",23.2053,"Approved","OW496"
"2023-05-09 07:00",23.2028,"Approved","OW496"
"2023-05-09 08:00",23.1998,"Approved","OW496"
"2023-05-09 09:00",23.1968,"Approved","OW496"
"2023-05-09 10:00",23.1937,"Approved","OW496"
"2023-05-09 11:00",23.1912,"Approved","OW496"
"2023-05-09 12:00",23.1914,"Approved","OW496"
"2023-05-09 13:00",23.1945,"Approved","OW496"
"2023-05-09 14:00",23.1974,"Approved","OW496"
"2023-05-09 15:00",23.1965,"Approved","OW496"
"2023-05-09 16:00",23.1935,"Approved","OW496"
"2023-05-09 17:00",23.1929,"Approved","OW496"
"2023-05-09 18:00",23.1913,"Approved","OW496"
"2023-05-09 19:00",23.1924,"Approved","OW496"
"2023-05-09 20:00",23.1912,"Approved","OW496"
"2023-05-09 21:00",23.1919,"Approved","OW496"
"2023-05-09 22:00",23.1918,"Approved","OW496"
"2023-05-09 23:00",23.1937,"Approved","OW496"
"2023-05-10 00:00",23.1979,"Approved","OW496"
"2023-05-10 01:00",23.202,"Approved","OW496"
"2023-05-10 02:00",23.205,"Approved","OW496"
"2023-05-10 03:00",23.2058,"Approved","OW496"
"2023-05-10 04:00",23.2042,"Approved","OW496"
"2023-05-10 05:00",23.2025,"Approved","OW496"
"2023-05-10 06:00",23.1979,"Approved","OW496"
"2023-05-10 07:00",23.1931,"Approved","OW496"
"2023-05-10 08:00",23.1891,"Approved","OW496"
"2023-05-10 09:00",23.1844,"Approved","OW496"
"2023-05-10 10:00",23.1815,"Approved","OW496"
"2023-05-10 11:00",23.1776,"Approved","OW496"
"2023-05-10 12:00",23.1769,"Approved","OW496"
"2023-05-10 13:00",23.1793,"Approved","OW496"
"2023-05-10 14:00",23.181,"Approved","OW496"
"2023-05-10 15:00",23.1801,"Approved","OW496"
"2023-05-10 16:00",23.1783,"Approved","OW496"
"2023-05-10 17:00",23.1768,"Approved","OW496"
"2023-05-10 18:00",23.1756,"Approved","OW496"
"2023-05-10 19:00",23.1734,"Approved","OW496"
"2023-05-10 20:00",23.172,"Approved","OW496"
"2023-05-10 21:00",23.1719,"Approved","OW496"
"2023-05-10 22:00",23.1724,"Approved","OW496"
"2023-05-10 23:00",23.1732,"Approved","OW496"
"2023-05-11 00:00",23.1778,"Approved","OW496"
"2023-05-11 01:00",23.1844,"Approved","OW496"
"2023-05-11 02:00",23.187,"Approved","OW496"
"2023-05-11 03:00",23.1885,"Approved","OW496"
"2023-05-11 04:00",23.1879,"Approved","OW496"
"2023-05-11 05:00",23.1869,"Approved","OW496"
"2023-05-11 06:00",23.183,"Approved","OW496"
"2023-05-11 07:00",23.1816,"Approved","OW496"
"2023-05-11 08:00",23.1799,"Approved","OW496"
"2023-05-11 09:00",23.187,"Approved","OW496"
"2023-05-11 10:00",23.1857,"Approved","OW496"
"2023-05-11 11:00",23.1795,"Approved","OW496"
"2023-05-11 12:00",23.1794,"Approved","OW496"
"2023-05-11 13:00",23.1854,"Approved","OW496"
"2023-05-11 14:00",23.1867,"Approved","OW496"
"2023-05-11 15:00",23.1888,"Approved","OW496"
"2023-05-11 16:00",23.1862,"Approved","OW496"
"2023-05-11 17:00",23.1858,"Approved","OW496"
"2023-05-11 18:00",23.1831,"Approved","OW496"
"2023-05-11 19:00",23.1837,"Approved","OW496"
"2023-05-11 20:00",23.1842,"Approved","OW496"
"2023-05-11 21:00",23.1843,"Approved","OW496"
"2023-05-11 22:00",23.1869,"Approved","OW496"
"2023-05-11 23:00",23.1904,"Approved","OW496"
"2023-05-12 00:00",23.1962,"Approved","OW496"
"2023-05-12 01:00",23.2005,"Approved","OW496"
"2023-05-12 02:00",23.2048,"Approved","OW496"
"2023-05-12 03:00",23.2063,"Approved","OW496"
"2023-05-12 04:00",23.2059,"Approved","OW496"
"2023-05-12 05:00",23.2053,"Approved","OW496"
"2023-05-12 06:00",23.1992,"Approved","OW496"
"2023-05-12 07:00",23.1981,"Approved","OW496"
"2023-05-12 08:00",23.1976,"Approved","OW496"
"2023-05-12 09:00",23.197,"Approved","OW496"
"2023-05-12 10:00",23.1957,"Approved","OW496"
"2023-05-12 11:00",23.2001,"Approved","OW496"
"2023-05-12 12:00",23.2008,"Approved","OW496"
"2023-05-12 13:00",23.204,"Approved","OW496"
"2023-05-12 14:00",23.2061,"Approved","OW496"
"2023-05-12 15:00",23.2099,"Approved","OW496"
"2023-05-12 16:00",23.212,"Approved","OW496"
"2023-05-12 17:00",23.2134,"Approved","OW496"
"2023-05-12 18:00",23.2152,"Approved","OW496"
"2023-05-12 19:00",23.2143,"Approved","OW496"
"2023-05-12 20:00",23.217,"Approved","OW496"
"2023-05-12 21:00",23.2193,"Approved","OW496"
"2023-05-12 22:00",23.2198,"Approved","OW496"
"2023-05-12 23:00",23.2223,"Approved","OW496"
"2023-05-13 00:00",23.2242,"Approved","OW496"
"2023-05-13 01:00",23.23,"Approved","OW496"
"2023-05-13 02:00",23.2296,"Approved","OW496"
"2023-05-13 03:00",23.2275,"Approved","OW496"
"2023-05-13 04:00",23.2286,"Approved","OW496"
"2023-05-13 05:00",23.2265,"Approved","OW496"
"2023-05-13 06:00",23.2254,"Approved","OW496"
"2023-05-13 07:00",23.2186,"Approved","OW496"
"2023-05-13 08:00",23.2162,"Approved","OW496"
"2023-05-13 09:00",23.2127,"Approved","OW496"
"2023-05-13 10:00",23.2134,"Approved","OW496"
"2023-05-13 11:00",23.2158,"Approved","OW496"
"2023-05-13 12:00",23.2192,"Approved","OW496"
"2023-05-13 13:00",23.2241,"Approved","OW496"
"2023-05-13 14:00",23.2306,"Approved","OW496"
"2023-05-13 15:00",23.2345,"Approved","OW496"
"2023-05-13 16:00",23.234,"Approved","OW496"
"2023-05-13 17:00",23.2341,"Approved","OW496"
"2023-05-13 18:00",23.2349,"Approved","OW496"
"2023-05-13 19:00",23.2343,"Approved","OW496"
"2023-05-13 20:00",23.2367,"Approved","OW496"
"2023-05-13 21:00",23.2365,"Approved","OW496"
"2023-05-13 22:00",23.241,"Approved","OW496"
"2023-05-13 23:00",23.2407,"Approved","OW496"
"2023-05-14 00:00",23.2453,"Approved","OW496"
"2023-05-14 01:00",23.2515,"Approved","OW496"
"2023-05-14 02:00",23.2509,"Approved","OW496"
"2023-05-14 03:00",23.2499,"Approved","OW496"
"2023-05-14 04:00",23.2504,"Approved","OW496"
"2023-05-14 05:00",23.2473,"Approved","OW496"
"2023-05-14 06:00",23.2432,"Approved","OW496"
"2023-05-14 07:00",23.2401,"Approved","OW496"
"2023-05-14 08:00",23.2339,"Approved","OW496"
"2023-05-14 09:00",23.2286,"Approved","OW496"
"2023-05-14 10:00",23.2225,"Approved","OW496"
"2023-05-14 11:00",23.2176,"Approved","OW496"
"2023-05-14 12:00",23.2181,"Approved","OW496"
"2023-05-14 13:00",23.219,"Approved","OW496"
"2023-05-14 14:00",23.2194,"Approved","OW496"
"2023-05-14 15:00",23.2195,"Approved","OW496"
"2023-05-14 16:00",23.2149,"Approved","OW496"
"2023-05-14 17:00",23.2138,"Approved","OW496"
"2023-05-14 18:00",23.2073,"Approved","OW496"
"2023-05-14 19:00",23.2039,"Approved","OW496"
"2023-05-14 20:00",23.1971,"Approved","OW496"
"2023-05-14 21:00",23.1939,"Approved","OW496"
"2023-05-14 22:00",23.1878,"Approved","OW496"
"2023-05-14 23:00",23.1855,"Approved","OW496"
"2023-05-15 00:00",23.1845,"Approved","OW496"
"2023-05-15 01:00",23.1826,"Approved","OW496"
"2023-05-15 02:00",23.1809,"Approved","OW496"
"2023-05-15 03:00",23.1808,"Approved","OW496"
"2023-05-15 04:00",23.1789,"Approved","OW496"
"2023-05-15 05:00",23.1839,"Approved","OW496"
"2023-05-15 06:00",23.1829,"Approved","OW496"
"2023-05-15 07:00",23.1783,"Approved","OW496"
"2023-05-15 08:00",23.1789,"Approved","OW496"
"2023-05-15 09:00",23.178,"Approved","OW496"
"2023-05-15 10:00",23.1761,"Approved","OW496"
"2023-05-15 11:00",23.1722,"Approved","OW496"
"2023-05-15 12:00",23.1722,"Approved","OW496"
"2023-05-15 13:00",23.1773,"Approved","OW496"
"2023-05-15 14:00",23.1803,"Approved","OW496"
"2023-05-15 15:00",23.1828,"Approved","OW496"
"2023-05-15 16:00",23.1859,"Approved","OW496"
"2023-05-15 17:00",23.1905,"Approved","OW496"
"2023-05-15 18:00",23.1921,"Approved","OW496"
"2023-05-15 19:00",23.1963,"Approved","OW496"
"2023-05-15 20:00",23.1987,"Approved","OW496"
"2023-05-15 21:00",23.2016,"Approved","OW496"
"2023-05-15 22:00",23.202,"Approved","OW496"
"2023-05-15 23:00",23.2069,"Approved","OW496"
"2023-05-16 00:00",23.2133,"Approved","OW496"
"2023-05-16 01:00",23.2177,"Approved","OW496"
"2023-05-16 02:00",23.2223,"Approved","OW496"
"2023-05-16 03:00",23.2221,"Approved","OW496"
"2023-05-16 04:00",23.2222,"Approved","OW496"
"2023-05-16 05:00",23.2181,"Approved","OW496"
"2023-05-16 06:00",23.2119,"Approved","OW496"
"2023-05-16 07:00",23.206,"Approved","OW496"
"2023-05-16 08:00",23.1994,"Approved","OW496"
"2023-05-16 09:00",23.1951,"Approved","OW496"
"2023-05-16 10:00",23.1909,"Approved","OW496"
"2023-05-16 11:00",23.1858,"Approved","OW496"
"2023-05-16 12:00",23.1833,"Approved","OW496"
"2023-05-16 13:00",23.1847,"Approved","OW496"
"2023-05-16 14:00",23.1854,"Approved","OW496"
"2023-05-16 15:00",23.1835,"Approved","OW496"
"2023-05-16 16:00",23.1829,"Approved","OW496"
"2023-05-16 17:00",23.1801,"Approved","OW496"
"2023-05-16 18:00",23.1783,"Approved","OW496"
"2023-05-16 19:00",23.1775,"Approved","OW496"
"2023-05-16 20:00",23.1755,"Approved","OW496"
"2023-05-16 21:00",23.1748,"Approved","OW496"
"2023-05-16 22:00",23.1745,"Approved","OW496"
"2023-05-16 23:00",23.1754,"Approved","OW496"
"2023-05-17 00:00",23.1767,"Approved","OW496"
"2023-05-17 01:00",23.18,"Approved","OW496"
"2023-05-17 02:00",23.1837,"Approved","OW496"
"2023-05-17 03:00",23.184,"Approved","OW496"
"2023-05-17 04:00",23.1806,"Approved","OW496"
"2023-05-17 05:00",23.1782,"Approved","OW496"
"2023-05-17 06:00",23.1743,"Approved","OW496"
"2023-05-17 07:00",23.1693,"Approved","OW496"
"2023-05-17 08:00",23.1634,"Approved","OW496"
"2023-05-17 09:00",23.1589,"Approved","OW496"
"2023-05-17 10:00",23.1542,"Approved","OW496"
"2023-05-17 11:00",23.1507,"Approved","OW496"
"2023-05-17 12:00",23.1484,"Approved","OW496"
"2023-05-17 13:00",23.1499,"Approved","OW496"
"2023-05-17 14:00",23.1513,"Approved","OW496"
"2023-05-17 15:00",23.1492,"Approved","OW496"
"2023-05-17 16:00",23.1496,"Approved","OW496"
"2023-05-17 17:00",23.149,"Approved","OW496"
"2023-05-17 18:00",23.1479,"Approved","OW496"
"2023-05-17 19:00",23.1445,"Approved","OW496"
"2023-05-17 20:00",23.1418,"Approved","OW496"
"2023-05-17 21:00",23.1381,"Approved","OW496"
"2023-05-17 22:00",23.137,"Approved","OW496"
"2023-05-17 23:00",23.1356,"Approved","OW496"
"2023-05-18 00:00",23.137,"Approved","OW496"
"2023-05-18 01:00",23.138,"Approved","OW496"
"2023-05-18 02:00",23.1398,"Approved","OW496"
"2023-05-18 03:00",23.1394,"Approved","OW496"
"2023-05-18 04:00",23.1355,"Approved","OW496"
"2023-05-18 05:00",23.1316,"Approved","OW496"
"2023-05-18 06:00",23.126,"Approved","OW496"
"2023-05-18 07:00",23.1189,"Approved","OW496"
"2023-05-18 08:00",23.1135,"Approved","OW496"
"2023-05-18 09:00",23.1063,"Approved","OW496"
"2023-05-18 10:00",23.1032,"Approved","OW496"
"2023-05-18 11:00",23.1012,"Approved","OW496"
"2023-05-18 12:00",23.101,"Approved","OW496"
"2023-05-18 13:00",23.0998,"Approved","OW496"
"2023-05-18 14:00",23.0987,"Approved","OW496"
"2023-05-18 15:00",23.0972,"Approved","OW496"
"2023-05-18 16:00",23.0966,"Approved","OW496"
"2023-05-18 17:00",23.0933,"Approved","OW496"
"2023-05-18 18:00",23.0932,"Approved","OW496"
"2023-05-18 19:00",23.0915,"Approved","OW496"
"2023-05-18 20:00",23.0937,"Approved","OW496"
"2023-05-18 21:00",23.096,"Approved","OW496"
"2023-05-18 22:00",23.1001,"Approved","OW496"
"2023-05-18 23:00",23.1042,"Approved","OW496"
"2023-05-19 00:00",23.117,"Approved","OW496"
"2023-05-19 01:00",23.1231,"Approved","OW496"
"2023-05-19 02:00",23.1316,"Approved","OW496"
"2023-05-19 03:00",23.1388,"Approved","OW496"
"2023-05-19 04:00",23.1441,"Approved","OW496"
"2023-05-19 05:00",23.1503,"Approved","OW496"
"2023-05-19 06:00",23.1541,"Approved","OW496"
"2023-05-19 07:00",23.1565,"Approved","OW496"
"2023-05-19 08:00",23.1573,"Approved","OW496"
"2023-05-19 09:00",23.158,"Approved","OW496"
"2023-05-19 10:00",23.1606,"Approved","OW496"
"2023-05-19 11:00",23.1604,"Approved","OW496"
"2023-05-19 12:00",23.1618,"Approved","OW496"
"2023-05-19 13:00",23.1649,"Approved","OW496"
"2023-05-19 14:00",23.1701,"Approved","OW496"
"2023-05-19 15:00",23.1715,"Approved","OW496"
"2023-05-19 16:00",23.1729,"Approved","OW496"
"2023-05-19 17:00",23.1729,"Approved","OW496"
"2023-05-19 18:00",23.1766,"Approved","OW496"
"2023-05-19 19:00",23.1773,"Approved","OW496"
"2023-05-19 20:00",23.1772,"Approved","OW496"
"2023-05-19 21:00",23.1789,"Approved","OW496"
"2023-05-19 22:00",23.1774,"Approved","OW496"
"2023-05-19 23:00",23.1751,"Approved","OW496"
"2023-05-20 00:00",23.1768,"Approved","OW496"
"2023-05-20 01:00",23.1781,"Approved","OW496"
"2023-05-20 02:00",23.1787,"Approved","OW496"
"2023-05-20 03:00",23.1811,"Approved","OW496"
"2023-05-20 04:00",23.1789,"Approved","OW496"
"2023-05-20 05:00",23.1776,"Approved","OW496"
"2023-05-20 06:00",23.1737,"Approved","OW496"
"2023-05-20 07:00",23.1693,"Approved","OW496"
"2023-05-20 08:00",23.1649,"Approved","OW496"
"2023-05-20 09:00",23.1615,"Approved","OW496"
"2023-05-20 10:00",23.1565,"Approved","OW496"
"2023-05-20 11:00",23.152,"Approved","OW496"
"2023-05-20 12:00",23.1504,"Approved","OW496"
"2023-05-20 13:00",23.15,"Approved","OW496"
"2023-05-20 14:00",23.1505,"Approved","OW496"
"2023-05-20 15:00",23.1486,"Approved","OW496"
"2023-05-20 16:00",23.1476,"Approved","OW496"
"2023-05-20 17:00",23.1459,"Approved","OW496"
"2023-05-20 18:00",23.1453,"Approved","OW496"
"2023-05-20 19:00",23.1437,"Approved","OW496"
"2023-05-20 20:00",23.1445,"Approved","OW496"
"2023-05-20 21:00",23.1437,"Approved","OW496"
"2023-05-20 22:00",23.1426,"Approved","OW496"
"2023-05-20 23:00",23.144,"Approved","OW496"
"2023-05-21 00:00",23.1451,"Approved","OW496"
"2023-05-21 01:00",23.1468,"Approved","OW496"
"2023-05-21 02:00",23.1479,"Approved","OW496"
"2023-05-21 03:00",23.1462,"Approved","OW496"
"2023-05-21 04:00",23.146,"Approved","OW496"
"2023-05-21 05:00",23.1463,"Approved","OW496"
"2023-05-21 06:00",23.1444,"Approved","OW496"
"2023-05-21 07:00",23.1413,"Approved","OW496"
"2023-05-21 08:00",23.1398,"Approved","OW496"
"2023-05-21 09:00",23.1359,"Approved","OW496"
"2023-05-21 10:00",23.1362,"Approved","OW496"
"2023-05-21 11:00",23.1369,"Approved","OW496"
"2023-05-21 12:00",23.1423,"Approved","OW496"
"2023-05-21 13:00",23.1447,"Approved","OW496"
"2023-05-21 14:00",23.1463,"Approved","OW496"
"2023-05-21 15:00",23.1465,"Approved","OW496"
"2023-05-21 16:00",23.1536,"Approved","OW496"
"2023-05-21 17:00",23.1552,"Approved","OW496"
"2023-05-21 18:00",23.1579,"Approved","OW496"
"2023-05-21 19:00",23.1615,"Approved","OW496"
"2023-05-21 20:00",23.1634,"Approved","OW496"
"2023-05-21 21:00",23.1637,"Approved","OW496"
"2023-05-21 22:00",23.166,"Approved","OW496"
"2023-05-21 23:00",23.1681,"Approved","OW496"
"2023-05-22 00:00",23.17,"Approved","OW496"
"2023-05-22 01:00",23.1723,"Approved","OW496"
"2023-05-22 02:00",23.1753,"Approved","OW496"
"2023-05-22 03:00",23.1813,"Approved","OW496"
"2023-05-22 04:00",23.1839,"Approved","OW496"
"2023-05-22 05:00",23.1866,"Approved","OW496"
"2023-05-22 06:00",23.1888,"Approved","OW496"
"2023-05-22 07:00",23.1908,"Approved","OW496"
"2023-05-22 08:00",23.1926,"Approved","OW496"
"2023-05-22 09:00",23.1938,"Approved","OW496"
"2023-05-22 10:00",23.1926,"Approved","OW496"
"2023-05-22 11:00",23.192,"Approved","OW496"
"2023-05-22 12:00",23.1916,"Approved","OW496"
"2023-05-22 13:00",23.1909,"Approved","OW496"
"2023-05-22 14:00",23.1891,"Approved","OW496"
"2023-05-22 15:00",23.1912,"Approved","OW496"
"2023-05-22 16:00",23.1896,"Approved","OW496"
"2023-05-22 17:00",23.1891,"Approved","OW496"
"2023-05-22 18:00",23.1891,"Approved","OW496"
"2023-05-22 19:00",23.1871,"Approved","OW496"
"2023-05-22 20:00",23.1855,"Approved","OW496"
"2023-05-22 21:00",23.184,"Approved","OW496"
"2023-05-22 22:00",23.1835,"Approved","OW496"
"2023-05-22 23:00",23.1827,"Approved","OW496"
"2023-05-23 00:00",23.1812,"Approved","OW496"
"2023-05-23 01:00",23.1815,"Approved","OW496"
"2023-05-23 02:00",23.1817,"Approved","OW496"
"2023-05-23 03:00",23.1821,"Approved","OW496"
"2023-05-23 04:00",23.181,"Approved","OW496"
"2023-05-23 05:00",23.1782,"Approved","OW496"
"2023-05-23 06:00",23.1722,"Approved","OW496"
"2023-05-23 07:00",23.1695,"Approved","OW496"
"2023-05-23 08:00",23.1661,"Approved","OW496"
"2023-05-23 09:00",23.1599,"Approved","OW496"
"2023-05-23 10:00",23.1541,"Approved","OW496"
"2023-05-23 11:00",23.1498,"Approved","OW496"
"2023-05-23 12:00",23.1442,"Approved","OW496"
"2023-05-23 13:00",23.141,"Approved","OW496"
"2023-05-23 14:00",23.1385,"Approved","OW496"
"2023-05-23 15:00",23.1356,"Approved","OW496"
"2023-05-23 16:00",23.1321,"Approved","OW496"
"2023-05-23 17:00",23.1287,"Approved","OW496"
"2023-05-23 18:00",23.1249,"Approved","OW496"
"2023-05-23 19:00",23.1217,"Approved","OW496"
"2023-05-23 20:00",23.1199,"Approved","OW496"
"2023-05-23 21:00",23.1177,"Approved","OW496"
"2023-05-23 22:00",23.1159,"Approved","OW496"
"2023-05-23 23:00",23.1155,"Approved","OW496"
"2023-05-24 00:00",23.1205,"Approved","OW496"
"2023-05-24 01:00",23.1254,"Approved","OW496"
"2023-05-24 02:00",23.1299,"Approved","OW496"
"2023-05-24 03:00",23.1315,"Approved","OW496"
"2023-05-24 04:00",23.1349,"Approved","OW496"
"2023-05-24 05:00",23.1359,"Approved","OW496"
"2023-05-24 06:00",23.1366,"Approved","OW496"
"2023-05-24 07:00",23.138,"Approved","OW496"
"2023-05-24 08:00",23.1412,"Approved","OW496"
"2023-05-24 09:00",23.1424,"Approved","OW496"
"2023-05-24 10:00",23.1438,"Approved","OW496"
"2023-05-24 11:00",23.1432,"Approved","OW496"
"2023-05-24 12:00",23.1448,"Approved","OW496"
"2023-05-24 13:00",23.147,"Approved","OW496"
"2023-05-24 14:00",23.1513,"Approved","OW496"
"2023-05-24 15:00",23.1535,"Approved","OW496"
"2023-05-24 16:00",23.1551,"Approved","OW496"
"2023-05-24 17:00",23.1565,"Approved","OW496"
"2023-05-24 18:00",23.1591,"Approved","OW496"
"2023-05-24 19:00",23.1605,"Approved","OW496"
"2023-05-24 20:00",23.1613,"Approved","OW496"
"2023-05-24 21:00",23.1638,"Approved","OW496"
"2023-05-24 22:00",23.1652,"Approved","OW496"
"2023-05-24 23:00",23.1663,"Approved","OW496"
"2023-05-25 00:00",23.1683,"Approved","OW496"
"2023-05-25 01:00",23.1688,"Approved","OW496"
"2023-05-25 02:00",23.1692,"Approved","OW496"
"2023-05-25 03:00",23.1699,"Approved","OW496"
"2023-05-25 04:00",23.1691,"Approved","OW496"
"2023-05-25 05:00",23.1687,"Approved","OW496"
"2023-05-25 06:00",23.1647,"Approved","OW496"
"2023-05-25 07:00",23.1601,"Approved","OW496"
"2023-05-25 08:00",23.1583,"Approved","OW496"
"2023-05-25 09:00",23.1532,"Approved","OW496"
"2023-05-25 10:00",23.1488,"Approved","OW496"
"2023-05-25 11:00",23.1433,"Approved","OW496"
"2023-05-25 12:00",23.1405,"Approved","OW496"
"2023-05-25 13:00",23.1396,"Approved","OW496"
"2023-05-25 14:00",23.1383,"Approved","OW496"
"2023-05-25 15:00",23.1375,"Approved","OW496"
"2023-05-25 16:00",23.1356,"Approved","OW496"
"2023-05-25 17:00",23.1322,"Approved","OW496"
"2023-05-25 18:00",23.1287,"Approved","OW496"
"2023-05-25 19:00",23.1258,"Approved","OW496"
"2023-05-25 20:00",23.1226,"Approved","OW496"
"2023-05-25 21:00",23.1201,"Approved","OW496"
"2023-05-25 22:00",23.1181,"Approved","OW496"
"2023-05-25 23:00",23.1169,"Approved","OW496"
"2023-05-26 00:00",23.1169,"Approved","OW496"
"2023-05-26 01:00",23.115,"Approved","OW496"
"2023-05-26 02:00",23.1138,"Approved","OW496"
"2023-05-26 03:00",23.1107,"Approved","OW496"
"2023-05-26 04:00",23.1067,"Approved","OW496"
"2023-05-26 05:00",23.1019,"Approved","OW496"
"2023-05-26 06:00",23.0968,"Approved","OW496"
"2023-05-26 07:00",23.0939,"Approved","OW496"
"2023-05-26 08:00",23.0883,"Approved","OW496"
"2023-05-26 09:00",23.0827,"Approved","OW496"
"2023-05-26 10:00",23.0792,"Approved","OW496"
"2023-05-26 11:00",23.0776,"Approved","OW496"
"2023-05-26 12:00",23.0861,"Approved","OW496"
"2023-05-26 13:00",23.0846,"Approved","OW496"
"2023-05-26 14:00",23.0825,"Approved","OW496"
"2023-05-26 15:00",23.0882,"Approved","OW496"
"2023-05-26 16:00",23.0892,"Approved","OW496"
"2023-05-26 17:00",23.0929,"Approved","OW496"
"2023-05-26 18:00",23.093,"Approved","OW496"
"2023-05-26 19:00",23.094,"Approved","OW496"
"2023-05-26 20:00",23.0971,"Approved","OW496"
"2023-05-26 21:00",23.101,"Approved","OW496"
"2023-05-26 22:00",23.1051,"Approved","OW496"
"2023-05-26 23:00",23.1071,"Approved","OW496"
"2023-05-27 00:00",23.1119,"Approved","OW496"
"2023-05-27 01:00",23.1162,"Approved","OW496"
"2023-05-27 02:00",23.1177,"Approved","OW496"
"2023-05-27 03:00",23.1198,"Approved","OW496"
"2023-05-27 04:00",23.1197,"Approved","OW496"
"2023-05-27 05:00",23.1175,"Approved","OW496"
"2023-05-27 06:00",23.1138,"Approved","OW496"
"2023-05-27 07:00",23.11,"Approved","OW496"
"2023-05-27 08:00",23.1087,"Approved","OW496"
"2023-05-27 09:00",23.1047,"Approved","OW496"
"2023-05-27 10:00",23.1021,"Approved","OW496"
"2023-05-27 11:00",23.101,"Approved","OW496"
"2023-05-27 12:00",23.0979,"Approved","OW496"
"2023-05-27 13:00",23.0956,"Approved","OW496"
"2023-05-27 14:00",23.0985,"Approved","OW496"
"2023-05-27 15:00",23.099,"Approved","OW496"
"2023-05-27 16:00",23.0987,"Approved","OW496"
"2023-05-27 17:00",23.0985,"Approved","OW496"
"2023-05-27 18:00",23.0985,"Approved","OW496"
"2023-05-27 19:00",23.099,"Approved","OW496"
"2023-05-27 20:00",23.0998,"Approved","OW496"
"2023-05-27 21:00",23.0983,"Approved","OW496"
"2023-05-27 22:00",23.0997,"Approved","OW496"
"2023-05-27 23:00",23.1007,"Approved","OW496"
"2023-05-28 00:00",23.103,"Approved","OW496"
"2023-05-28 01:00",23.1051,"Approved","OW496"
"2023-05-28 02:00",23.1066,"Approved","OW496"
"2023-05-28 03:00",23.1078,"Approved","OW496"
"2023-05-28 04:00",23.1082,"Approved","OW496"
"2023-05-28 05:00",23.1096,"Approved","OW496"
"2023-05-28 06:00",23.1075,"Approved","OW496"